QPF
0.01 0.01 0.03 0.04 0.03 0.02 0.02 0.03 0.04 0.03 0.02 0.03 0.03 0.02 0.02 0.02 0.02 0.02 0.02 0.02 0.02 0.01 0.01 0.01 0.01 0.01 0.01 0.01 0.01 0.02 0.03 0.02 0.02 0.03 0.04 0.05 0.04 0.02 0.03 0.02 0.02 0.02 0.02
0.00 0.00 0.01 0.03 0.04 0.03 0.04 0.04 0.04 0.03 0.02 0.02 0.02 0.02 0.02 0.01 0.01 0.01 0.02 0.02 0.02 0.01 0.01 0.02 0.01 0.01 0.01 0.01 0.01 0.02 0.04 0.03 0.03 0.03 0.04 0.06 0.07 0.04 0.03 0.02 0.02 0.03 0.02
0.01 0.00 0.01 0.02 0.04 0.04 0.05 0.06 0.07 0.05 0.03 0.02 0.02 0.02 0.02 0.02 0.01 0.01 0.02 0.02 0.02 0.02 0.02 0.02 0.01 0.01 0.01 0.01 0.01 0.01 0.02 0.03 0.03 0.02 0.03 0.05 0.06 0.04 0.03 0.02 0.02 0.02 0.02
0.01 0.01 0.01 0.03 0.04 0.05 0.06 0.07 0.07 0.05 0.03 0.02 0.02 0.02 0.01 0.01 0.01 0.01 0.01 0.02 0.03 0.03 0.03 0.03 0.02 0.01 0.01 0.01 0.01 0.01 0.02 0.03 0.04 0.02 0.02 0.04 0.04 0.03 0.02 0.03 0.02 0.02 0.02
0.01 0.02 0.02 0.03 0.03 0.04 0.05 0.08 0.07 0.05 0.04 0.03 0.02 0.01 0.02 0.01 0.01 0.01 0.01 0.01 0.02 0.03 0.02 0.02 0.02 0.01 0.01 0.01 0.01 0.02 0.04 0.05 0.03 0.03 0.02 0.03 0.04 0.03 0.02 0.03 0.03 0.03 0.03
0.01 0.01 0.01 0.01 0.02 0.03 0.03 0.05 0.06 0.05 0.04 0.04 0.03 0.02 0.02 0.01 0.01 0.01 0.01 0.00 0.01 0.01 0.01 0.01 0.03 0.03 0.02 0.01 0.01 0.02 0.03 0.06 0.05 0.03 0.03 0.02 0.02 0.02 0.01 0.01 0.02 0.03 0.04
0.00 0.01 0.01 0.01 0.02 0.02 0.03 0.04 0.05 0.04 0.03 0.03 0.03 0.02 0.01 0.01 0.01 0.01 0.01 0.01 0.00 0.01 0.01 0.01 0.03 0.06 0.04 0.03 0.02 0.02 0.02 0.03 0.04 0.03 0.03 0.03 0.02 0.02 0.02 0.01 0.01 0.01 0.03
0.00 0.01 0.01 0.01 0.01 0.01 0.01 0.02 0.03 0.03 0.02 0.02 0.02 0.02 0.02 0.02 0.01 0.02 0.01 0.01 0.01 0.01 0.01 0.01 0.02 0.04 0.04 0.04 0.03 0.03 0.03 0.02 0.03 0.04 0.05 0.04 0.04 0.04 0.04 0.03 0.01 0.01 0.03
0.01 0.01 0.01 0.01 0.02 0.02 0.02 0.02 0.03 0.03 0.03 0.02 0.03 0.02 0.02 0.02 0.01 0.02 0.01 0.00 0.00 0.00 0.00 0.00 0.01 0.02 0.03 0.02 0.02 0.02 0.03 0.03 0.05 0.07 0.06 0.06 0.04 0.03 0.02 0.03 0.02 0.02 0.03
0.01 0.02 0.01 0.01 0.01 0.01 0.02 0.02 0.02 0.02 0.03 0.03 0.03 0.02 0.01 0.01 0.01 0.01 0.01 0.01 0.01 0.00 0.01 0.01 0.01 0.01 0.01 0.02 0.02 0.02 0.03 0.04 0.04 0.03 0.03 0.03 0.03 0.02 0.01 0.01 0.01 0.01 0.02
0.01 0.01 0.01 0.01 0.01 0.01 0.01 0.01 0.02 0.02 0.02 0.03 0.03 0.03 0.02 0.02 0.02 0.02 0.02 0.02 0.02 0.01 0.01 0.01 0.01 0.01 0.01 0.01 0.02 0.02 0.02 0.02 0.02 0.02 0.02 0.02 0.02 0.02 0.01 0.01 0.01 0.01 0.01
0.00 0.01 0.00 0.01 0.01 0.02 0.02 0.02 0.03 0.03 0.03 0.03 0.03 0.04 0.04 0.03 0.02 0.02 0.03 0.02 0.02 0.02 0.02 0.02 0.02 0.01 0.01 0.01 0.01 0.01 0.01 0.01 0.01 0.01 0.02 0.02 0.02 0.02 0.01 0.01 0.01 0.01 0.01
0.00 0.01 0.01 0.00 0.01 0.01 0.01 0.01 0.01 0.01 0.02 0.02 0.03 0.03 0.04 0.04 0.05 0.04 0.04 0.04 0.03 0.03 0.02 0.02 0.02 0.01 0.01 0.00 0.00 0.00 0.01 0.01 0.01 0.00 0.01 0.02 0.01 0.01 0.01 0.00 0.01 0.01 0.00
0.00 0.01 0.01 0.01 0.01 0.01 0.01 0.01 0.01 0.01 0.01 0.01 0.01 0.02 0.02 0.02 0.03 0.03 0.03 0.03 0.04 0.04 0.04 0.03 0.02 0.01 0.01 0.01 0.01 0.01 0.01 0.00 0.00 0.00 0.00 0.00 0.00 0.01 0.01 0.01 0.01 0.01 0.00
0.01 0.01 0.01 0.01 0.01 0.01 0.01 0.01 0.01 0.01 0.01 0.01 0.01 0.01 0.02 0.02 0.02 0.02 0.02 0.03 0.04 0.05 0.05 0.04 0.04 0.04 0.03 0.02 0.02 0.01 0.01 0.01 0.01 0.00 0.00 0.00 0.00 0.00 0.01 0.00 0.01 0.01 0.01
0.00 0.00 0.00 0.00 0.01 0.01 0.01 0.01 0.01 0.02 0.02 0.01 0.01 0.02 0.03 0.03 0.02 0.02 0.02 0.02 0.02 0.02 0.02 0.02 0.02 0.03 0.04 0.03 0.02 0.02 0.01 0.01 0.01 0.01 0.01 0.01 0.01 0.00 0.00 0.01 0.01 0.01 0.01
0.00 0.00 0.00 0.00 0.00 0.00 0.00 0.01 0.01 0.01 0.02 0.02 0.02 0.03 0.03 0.02 0.02 0.02 0.02 0.02 0.02 0.02 0.02 0.01 0.02 0.03 0.04 0.05 0.04 0.03 0.02 0.02 0.02 0.02 0.02 0.02 0.02 0.02 0.01 0.01 0.01 0.00 0.01
0.00 0.00 0.00 0.00 0.00 0.00 0.00 0.00 0.01 0.01 0.02 0.02 0.03 0.03 0.02 0.02 0.02 0.02 0.02 0.02 0.02 0.02 0.02 0.03 0.03 0.02 0.04 0.05 0.05 0.06 0.05 0.03 0.03 0.03 0.04 0.05 0.05 0.05 0.04 0.03 0.02 0.01 0.01
0.00 0.00 0.00 0.00 0.00 0.00 0.00 0.01 0.01 0.01 0.01 0.02 0.02 0.02 0.02 0.02 0.01 0.02 0.02 0.02 0.03 0.03 0.03 0.04 0.04 0.04 0.04 0.05 0.04 0.04 0.04 0.05 0.05 0.04 0.03 0.03 0.03 0.03 0.03 0.02 0.02 0.02 0.02
0.00 0.00 0.00 0.00 0.00 0.00 0.00 0.00 0.01 0.01 0.02 0.02 0.02 0.02 0.01 0.01 0.02 0.02 0.03 0.03 0.03 0.04 0.04 0.04 0.04 0.03 0.03 0.05 0.05 0.05 0.04 0.04 0.04 0.04 0.04 0.03 0.02 0.02 0.02 0.01 0.01 0.01 0.02
0.00 0.00 0.00 0.00 0.00 0.00 0.00 0.00 0.00 0.00 0.01 0.01 0.02 0.02 0.02 0.02 0.04 0.06 0.06 0.04 0.04 0.04 0.04 0.03 0.03 0.03 0.03 0.04 0.04 0.04 0.03 0.03 0.03 0.03 0.03 0.03 0.02 0.02 0.03 0.02 0.01 0.01 0.01
0.01 0.01 0.00 0.00 0.00 0.00 0.00 0.00 0.00 0.00 0.01 0.01 0.02 0.02 0.02 0.02 0.03 0.05 0.06 0.05 0.05 0.05 0.04 0.04 0.03 0.02 0.03 0.03 0.03 0.03 0.03 0.03 0.02 0.02 0.02 0.02 0.02 0.01 0.02 0.02 0.03 0.02 0.02
0.01 0.01 0.01 0.00 0.00 0.00 0.01 0.01 0.00 0.01 0.01 0.01 0.01 0.01 0.01 0.01 0.01 0.02 0.03 0.04 0.04 0.04 0.03 0.03 0.03 0.03 0.03 0.03 0.03 0.03 0.02 0.02 0.02 0.02 0.02 0.02 0.02 0.02 0.01 0.02 0.02 0.02 0.02
0.01 0.01 0.01 0.01 0.00 0.00 0.01 0.01 0.01 0.01 0.01 0.01 0.01 0.00 0.00 0.00 0.00 0.01 0.02 0.02 0.03 0.02 0.02 0.02 0.02 0.02 0.02 0.02 0.02 0.03 0.02 0.02 0.02 0.02 0.02 0.03 0.03 0.02 0.02 0.02 0.02 0.02 0.02
0.01 0.01 0.00 0.00 0.00 0.00 0.01 0.01 0.01 0.01 0.01 0.01 0.01 0.01 0.00 0.00 0.00 0.00 0.01 0.01 0.01 0.02 0.02 0.03 0.03 0.02 0.02 0.02 0.02 0.02 0.02 0.02 0.02 0.02 0.02 0.03 0.03 0.02 0.02 0.02 0.02 0.02 0.02
0.01 0.01 0.01 0.01 0.00 0.00 0.01 0.01 0.01 0.01 0.01 0.01 0.01 0.02 0.01 0.01 0.01 0.01 0.01 0.01 0.01 0.02 0.02 0.03 0.03 0.03 0.02 0.02 0.02 0.02 0.02 0.02 0.02 0.02 0.02 0.02 0.02 0.01 0.01 0.01 0.01 0.01 0.01
MSLP
1012.98 1013.44 1013.80 1014.06 1014.22 1014.31 1014.38 1014.46 1014.60 1014.80 1015.06 1015.35 1015.65 1015.92 1016.16 1016.34 1016.49 1016.64 1016.80 1017.02 1017.29 1017.63 1018.01 1018.40 1018.78 1019.12 1019.40 1019.62 1019.79 1019.92 1020.05 1020.19 1020.34 1020.50 1020.66 1020.80 1020.88 1020.91 1020.86 1020.75 1020.59 1020.42 1020.24
1012.66 1013.21 1013.64 1013.94 1014.12 1014.22 1014.28 1014.37 1014.52 1014.75 1015.04 1015.39 1015.74 1016.05 1016.32 1016.51 1016.65 1016.77 1016.90 1017.08 1017.31 1017.62 1017.99 1018.39 1018.79 1019.15 1019.45 1019.69 1019.87 1020.01 1020.13 1020.26 1020.41 1020.57 1020.74 1020.89 1021.01 1021.08 1021.08 1021.02 1020.92 1020.78 1020.64
1012.32 1012.95 1013.44 1013.79 1013.99 1014.09 1014.15 1014.24 1014.39 1014.65 1014.98 1015.37 1015.78 1016.15 1016.45 1016.67 1016.82 1016.92 1017.03 1017.16 1017.37 1017.65 1017.99 1018.38 1018.78 1019.15 1019.46 1019.70 1019.88 1020.02 1020.13 1020.24 1020.38 1020.53 1020.71 1020.88 1021.03 1021.15 1021.20 1021.21 1021.16 1021.08 1020.99
1011.97 1012.67 1013.22 1013.60 1013.82 1013.93 1013.99 1014.07 1014.24 1014.50 1014.87 1015.31 1015.77 1016.19 1016.54 1016.80 1016.96 1017.07 1017.16 1017.28 1017.45 1017.70 1018.02 1018.39 1018.77 1019.13 1019.44 1019.68 1019.85 1019.98 1020.07 1020.16 1020.28 1020.42 1020.59 1020.78 1020.96 1021.12 1021.23 1021.30 1021.31 1021.29 1021.25
1011.62 1012.38 1012.98 1013.39 1013.64 1013.75 1013.81 1013.89 1014.05 1014.33 1014.72 1015.19 1015.69 1016.16 1016.56 1016.86 1017.06 1017.18 1017.28 1017.38 1017.54 1017.76 1018.06 1018.40 1018.77 1019.11 1019.41 1019.63 1019.79 1019.90 1019.97 1020.04 1020.13 1020.26 1020.42 1020.62 1020.82 1021.01 1021.17 1021.29 1021.36 1021.39 1021.39
1011.26 1012.06 1012.71 1013.16 1013.42 1013.55 1013.61 1013.69 1013.85 1014.13 1014.53 1015.02 1015.55 1016.05 1016.49 1016.83 1017.07 1017.22 1017.33 1017.45 1017.60 1017.81 1018.08 1018.41 1018.75 1019.08 1019.35 1019.56 1019.71 1019.79 1019.85 1019.90 1019.97 1020.08 1020.23 1020.42 1020.63 1020.84 1021.03 1021.19 1021.30 1021.37 1021.41
1010.89 1011.73 1012.41 1012.89 1013.19 1013.34 1013.41 1013.50 1013.66 1013.93 1014.32 1014.81 1015.35 1015.87 1016.34 1016.71 1016.98 1017.16 1017.30 1017.44 1017.59 1017.80 1018.07 1018.38 1018.71 1019.02 1019.28 1019.48 1019.61 1019.68 1019.72 1019.76 1019.81 1019.90 1020.04 1020.22 1020.43 1020.64 1020.84 1021.01 1021.15 1021.24 1021.30
1010.52 1011.37 1012.08 1012.60 1012.93 1013.11 1013.21 1013.31 1013.47 1013.74 1014.12 1014.59 1015.12 1015.64 1016.11 1016.50 1016.80 1017.01 1017.18 1017.34 1017.52 1017.74 1018.00 1018.31 1018.63 1018.93 1019.19 1019.38 1019.51 1019.58 1019.62 1019.64 1019.69 1019.77 1019.89 1020.05 1020.24 1020.45 1020.64 1020.81 1020.95 1021.04 1021.10
1010.14 1010.99 1011.72 1012.26 1012.63 1012.86 1013.00 1013.12 1013.30 1013.56 1013.93 1014.38 1014.88 1015.38 1015.84 1016.23 1016.55 1016.79 1016.98 1017.17 1017.37 1017.61 1017.89 1018.20 1018.52 1018.82 1019.08 1019.28 1019.41 1019.49 1019.54 1019.57 1019.61 1019.68 1019.80 1019.94 1020.11 1020.29 1020.47 1020.62 1020.74 1020.82 1020.87
1009.74 1010.59 1011.32 1011.89 1012.31 1012.58 1012.77 1012.94 1013.14 1013.41 1013.77 1014.20 1014.66 1015.13 1015.57 1015.95 1016.26 1016.52 1016.74 1016.95 1017.18 1017.44 1017.73 1018.06 1018.39 1018.70 1018.97 1019.18 1019.33 1019.43 1019.49 1019.54 1019.59 1019.67 1019.77 1019.90 1020.05 1020.21 1020.35 1020.48 1020.57 1020.63 1020.67
1009.34 1010.16 1010.88 1011.48 1011.93 1012.27 1012.52 1012.74 1012.98 1013.28 1013.63 1014.04 1014.48 1014.92 1015.32 1015.68 1015.99 1016.25 1016.48 1016.71 1016.96 1017.25 1017.56 1017.90 1018.24 1018.57 1018.85 1019.08 1019.26 1019.38 1019.47 1019.54 1019.61 1019.69 1019.80 1019.92 1020.05 1020.18 1020.30 1020.40 1020.46 1020.50 1020.52
1008.93 1009.71 1010.41 1011.02 1011.51 1011.90 1012.22 1012.51 1012.80 1013.13 1013.50 1013.90 1014.32 1014.73 1015.11 1015.45 1015.74 1016.00 1016.25 1016.50 1016.77 1017.07 1017.40 1017.75 1018.10 1018.44 1018.73 1018.98 1019.18 1019.33 1019.45 1019.54 1019.63 1019.73 1019.84 1019.95 1020.07 1020.19 1020.28 1020.36 1020.40 1020.42 1020.43
1008.52 1009.24 1009.92 1010.52 1011.03 1011.47 1011.86 1012.21 1012.57 1012.95 1013.34 1013.75 1014.16 1014.56 1014.92 1015.24 1015.53 1015.79 1016.04 1016.31 1016.59 1016.90 1017.24 1017.60 1017.96 1018.29 1018.60 1018.86 1019.07 1019.24 1019.38 1019.50 1019.61 1019.72 1019.84 1019.95 1020.06 1020.16 1020.25 1020.31 1020.34 1020.36 1020.35
1008.09 1008.75 1009.39 1009.98 1010.51 1010.99 1011.43 1011.86 1012.28 1012.70 1013.14 1013.57 1013.99 1014.38 1014.73 1015.05 1015.34 1015.60 1015.86 1016.14 1016.43 1016.75 1017.09 1017.45 1017.80 1018.13 1018.42 1018.68 1018.90 1019.07 1019.22 1019.36 1019.48 1019.60 1019.73 1019.85 1019.96 1020.06 1020.13 1020.19 1020.22 1020.24 1020.24
1007.65 1008.25 1008.84 1009.41 1009.95 1010.46 1010.95 1011.43 1011.91 1012.39 1012.86 1013.32 1013.76 1014.16 1014.52 1014.84 1015.13 1015.41 1015.68 1015.97 1016.27 1016.59 1016.93 1017.27 1017.60 1017.91 1018.19 1018.43 1018.63 1018.80 1018.95 1019.08 1019.21 1019.34 1019.47 1019.60 1019.71 1019.81 1019.90 1019.96 1020.00 1020.03 1020.05
1007.20 1007.74 1008.29 1008.83 1009.37 1009.89 1010.42 1010.95 1011.47 1012.00 1012.51 1013.00 1013.46 1013.88 1014.25 1014.59 1014.90 1015.19 1015.48 1015.78 1016.08 1016.40 1016.73 1017.05 1017.35 1017.63 1017.88 1018.08 1018.26 1018.41 1018.54 1018.67 1018.80 1018.93 1019.06 1019.19 1019.32 1019.43 1019.52 1019.60 1019.66 1019.70 1019.74
1006.72 1007.23 1007.75 1008.27 1008.80 1009.33 1009.88 1010.43 1010.99 1011.55 1012.09 1012.61 1013.09 1013.53 1013.92 1014.28 1014.61 1014.92 1015.23 1015.53 1015.84 1016.16 1016.47 1016.76 1017.03 1017.28 1017.48 1017.65 1017.79 1017.91 1018.02 1018.13 1018.25 1018.38 1018.51 1018.65 1018.79 1018.92 1019.03 1019.12 1019.20 1019.26 1019.32
1006.24 1006.73 1007.23 1007.73 1008.25 1008.79 1009.35 1009.92 1010.50 1011.08 1011.64 1012.17 1012.67 1013.12 1013.54 1013.91 1014.26 1014.59 1014.91 1015.23 1015.54 1015.84 1016.14 1016.40 1016.64 1016.84 1017.01 1017.14 1017.24 1017.34 1017.42 1017.52 1017.63 1017.75 1017.89 1018.04 1018.20 1018.34 1018.47 1018.58 1018.68 1018.76 1018.83
1005.77 1006.25 1006.74 1007.24 1007.76 1008.30 1008.86 1009.44 1010.02 1010.60 1011.17 1011.71 1012.21 1012.68 1013.10 1013.49 1013.85 1014.20 1014.53 1014.85 1015.16 1015.45 1015.73 1015.97 1016.18 1016.35 1016.48 1016.58 1016.65 1016.72 1016.80 1016.88 1016.99 1017.12 1017.27 1017.43 1017.60 1017.76 1017.91 1018.04 1018.15 1018.23 1018.30
1005.31 1005.79 1006.29 1006.79 1007.31 1007.85 1008.41 1008.99 1009.56 1010.14 1010.70 1011.23 1011.74 1012.20 1012.63 1013.02 1013.39 1013.74 1014.08 1014.40 1014.70 1014.98 1015.24 1015.46 1015.65 1015.80 1015.91 1015.99 1016.05 1016.11 1016.18 1016.26 1016.37 1016.51 1016.67 1016.85 1017.03 1017.21 1017.37 1017.52 1017.63 1017.72 1017.78
1004.87 1005.37 1005.87 1006.38 1006.90 1007.44 1007.99 1008.56 1009.12 1009.68 1010.23 1010.75 1011.24 1011.70 1012.12 1012.52 1012.88 1013.23 1013.56 1013.87 1014.16 1014.43 1014.68 1014.88 1015.06 1015.20 1015.30 1015.38 1015.45 1015.51 1015.59 1015.68 1015.80 1015.95 1016.12 1016.31 1016.51 1016.70 1016.87 1017.01 1017.12 1017.20 1017.25
1004.46 1004.96 1005.47 1005.98 1006.50 1007.03 1007.57 1008.12 1008.67 1009.21 1009.74 1010.24 1010.72 1011.16 1011.58 1011.96 1012.32 1012.65 1012.96 1013.26 1013.54 1013.80 1014.03 1014.23 1014.40 1014.54 1014.65 1014.75 1014.83 1014.91 1015.00 1015.12 1015.25 1015.41 1015.59 1015.78 1015.98 1016.16 1016.33 1016.47 1016.57 1016.64 1016.66
1004.07 1004.56 1005.06 1005.56 1006.06 1006.58 1007.10 1007.63 1008.16 1008.69 1009.20 1009.68 1010.14 1010.57 1010.97 1011.34 1011.68 1012.00 1012.29 1012.57 1012.83 1013.08 1013.30 1013.50 1013.67 1013.82 1013.95 1014.07 1014.18 1014.28 1014.40 1014.52 1014.67 1014.83 1015.01 1015.19 1015.38 1015.55 1015.70 1015.82 1015.90 1015.94 1015.95
1003.70 1004.16 1004.63 1005.10 1005.58 1006.07 1006.56 1007.07 1007.58 1008.08 1008.57 1009.05 1009.49 1009.91 1010.29 1010.64 1010.96 1011.26 1011.53 1011.79 1012.04 1012.26 1012.48 1012.68 1012.86 1013.03 1013.18 1013.32 1013.46 1013.59 1013.72 1013.86 1014.00 1014.15 1014.31 1014.47 1014.63 1014.77 1014.89 1014.98 1015.04 1015.06 1015.05
1003.35 1003.75 1004.17 1004.59 1005.03 1005.48 1005.95 1006.42 1006.91 1007.39 1007.86 1008.32 1008.75 1009.15 1009.52 1009.86 1010.16 1010.44 1010.69 1010.93 1011.16 1011.37 1011.58 1011.78 1011.97 1012.16 1012.34 1012.50 1012.66 1012.81 1012.94 1013.08 1013.20 1013.33 1013.45 1013.57 1013.68 1013.78 1013.86 1013.92 1013.95 1013.95 1013.93
1003.02 1003.35 1003.70 1004.06 1004.44 1004.84 1005.27 1005.71 1006.16 1006.61 1007.07 1007.51 1007.93 1008.32 1008.68 1009.01 1009.30 1009.56 1009.80 1010.02 1010.22 1010.43 1010.63 1010.84 1011.04 1011.24 1011.43 1011.61 1011.78 1011.94 1012.07 1012.19 1012.29 1012.37 1012.45 1012.51 1012.56 1012.61 1012.64 1012.66 1012.67 1012.65 1012.62
Thickness
5725 5725 5723 5721 5719 5717 5715 5713 5710 5707 5704 5701 5699 5697 5695 5695 5694 5692 5691 5690 5689 5689 5688 5688 5688 5687 5686 5685 5685 5684 5683 5683 5684 5682 5681 5680 5680 5679 5676 5676 5676 5675 5673
5723 5722 5721 5718 5716 5714 5713 5711 5708 5705 5702 5700 5698 5696 5694 5693 5692 5690 5689 5687 5686 5685 5685 5686 5685 5683 5682 5681 5681 5680 5680 5680 5680 5679 5677 5675 5674 5672 5673 5672 5671 5670 5669
5720 5720 5718 5716 5714 5712 5710 5708 5706 5704 5701 5698 5696 5693 5690 5689 5688 5687 5686 5685 5684 5683 5682 5683 5683 5681 5680 5678 5677 5677 5676 5675 5676 5676 5674 5672 5670 5669 5668 5667 5666 5665 5665
5719 5718 5716 5714 5712 5710 5709 5706 5704 5702 5699 5696 5693 5691 5688 5686 5686 5686 5684 5683 5682 5681 5680 5680 5679 5679 5678 5676 5675 5675 5674 5672 5672 5671 5670 5671 5670 5666 5664 5664 5664 5662 5660
5715 5714 5714 5712 5711 5709 5707 5705 5702 5699 5697 5695 5691 5689 5688 5687 5686 5684 5682 5681 5680 5679 5678 5677 5677 5676 5676 5675 5674 5673 5672 5671 5670 5669 5668 5667 5665 5666 5663 5660 5659 5659 5658
5713 5712 5711 5710 5708 5706 5704 5702 5699 5696 5695 5692 5690 5688 5686 5684 5682 5680 5679 5679 5679 5678 5677 5676 5675 5675 5674 5674 5672 5672 5670 5669 5668 5667 5667 5665 5664 5662 5661 5659 5657 5655 5655
5709 5707 5706 5705 5703 5702 5700 5699 5696 5693 5692 5690 5689 5688 5686 5683 5681 5680 5679 5678 5677 5676 5676 5675 5674 5674 5673 5672 5671 5670 5668 5667 5666 5665 5665 5664 5663 5662 5660 5658 5656 5654 5653
5704 5702 5702 5701 5700 5698 5697 5696 5693 5691 5690 5688 5687 5686 5685 5682 5681 5679 5678 5677 5676 5676 5675 5673 5673 5672 5671 5670 5669 5668 5667 5666 5665 5664 5662 5661 5661 5660 5658 5656 5654 5652 5652
5698 5698 5698 5697 5696 5695 5694 5692 5690 5688 5686 5686 5684 5683 5682 5680 5679 5678 5677 5676 5676 5674 5673 5672 5671 5670 5669 5668 5667 5665 5665 5664 5663 5662 5661 5659 5658 5657 5656 5655 5653 5651 5648
5692 5692 5692 5692 5691 5691 5690 5689 5687 5685 5684 5683 5681 5679 5678 5677 5676 5675 5674 5674 5674 5672 5671 5670 5669 5668 5667 5666 5665 5663 5662 5662 5660 5658 5658 5657 5656 5655 5653 5652 5651 5650 5648
5686 5686 5686 5687 5686 5686 5685 5684 5683 5681 5680 5680 5678 5677 5676 5675 5674 5672 5671 5671 5670 5669 5668 5668 5667 5666 5665 5664 5662 5661 5660 5659 5658 5657 5656 5654 5653 5651 5650 5649 5648 5646 5645
5681 5681 5681 5680 5680 5679 5679 5679 5678 5677 5676 5676 5675 5674 5673 5671 5670 5669 5669 5668 5667 5666 5666 5665 5664 5663 5662 5661 5660 5659 5657 5656 5655 5654 5653 5652 5650 5649 5648 5646 5645 5644 5642
5675 5675 5674 5673 5673 5673 5673 5673 5672 5671 5671 5671 5670 5669 5668 5667 5666 5665 5665 5664 5664 5663 5662 5661 5660 5660 5659 5658 5657 5656 5655 5654 5653 5652 5651 5650 5648 5646 5645 5644 5643 5642 5640
5669 5668 5667 5666 5666 5666 5666 5666 5666 5665 5665 5664 5663 5663 5662 5661 5661 5660 5660 5659 5659 5659 5658 5658 5657 5656 5656 5655 5654 5653 5652 5650 5650 5649 5648 5647 5646 5644 5643 5641 5640 5638 5636
5663 5662 5662 5661 5660 5659 5660 5659 5659 5659 5658 5657 5656 5656 5656 5655 5655 5654 5654 5653 5653 5653 5653 5653 5652 5651 5650 5650 5649 5649 5647 5646 5645 5644 5644 5643 5641 5639 5638 5637 5636 5634 5632
5657 5657 5657 5656 5655 5654 5652 5652 5652 5652 5652 5650 5649 5649 5649 5648 5647 5647 5647 5647 5646 5646 5647 5647 5646 5645 5644 5642 5641 5641 5642 5641 5640 5639 5638 5638 5635 5632 5630 5628 5627 5627 5627
5651 5650 5651 5650 5650 5649 5647 5646 5646 5646 5645 5643 5642 5641 5642 5641 5640 5640 5640 5639 5639 5639 5639 5640 5640 5639 5638 5635 5634 5633 5634 5635 5635 5634 5633 5632 5630 5627 5627 5624 5621 5620 5619
5644 5644 5644 5643 5643 5643 5642 5640 5639 5638 5637 5636 5636 5635 5634 5634 5634 5633 5632 5632 5633 5632 5632 5632 5632 5631 5630 5628 5627 5626 5627 5629 5629 5628 5627 5626 5624 5622 5620 5620 5619 5618 5616
5638 5637 5636 5636 5636 5635 5634 5633 5632 5631 5629 5628 5627 5627 5627 5626 5625 5625 5625 5625 5626 5626 5625 5625 5624 5623 5623 5621 5619 5618 5620 5622 5622 5622 5621 5620 5619 5616 5613 5613 5612 5612 5611
5632 5629 5628 5628 5627 5627 5626 5625 5624 5623 5621 5620 5619 5619 5619 5618 5617 5617 5617 5617 5617 5618 5618 5618 5617 5617 5616 5614 5612 5610 5613 5614 5615 5615 5615 5611 5610 5607 5604 5605 5605 5604 5604
5624 5621 5620 5619 5618 5618 5617 5617 5616 5614 5613 5612 5611 5610 5610 5611 5610 5609 5609 5609 5609 5609 5609 5610 5609 5609 5608 5607 5604 5602 5605 5606 5607 5607 5607 5605 5600 5597 5595 5595 5597 5596 5595
5615 5613 5612 5610 5609 5609 5608 5608 5606 5605 5604 5603 5602 5602 5602 5602 5602 5601 5600 5600 5599 5600 5600 5601 5600 5600 5599 5597 5596 5594 5594 5596 5597 5598 5598 5596 5591 5588 5586 5586 5586 5584 5584
5608 5605 5604 5602 5601 5600 5599 5599 5597 5596 5595 5594 5594 5594 5594 5594 5593 5592 5592 5591 5591 5591 5591 5590 5590 5590 5590 5589 5587 5586 5586 5586 5587 5589 5588 5585 5581 5579 5579 5577 5576 5575 5576
5600 5598 5596 5595 5594 5592 5591 5589 5588 5587 5587 5586 5586 5586 5585 5585 5585 5583 5583 5582 5582 5581 5581 5580 5580 5580 5580 5579 5579 5578 5578 5577 5578 5579 5577 5575 5573 5572 5571 5570 5569 5569 5569
5593 5590 5589 5588 5586 5584 5582 5581 5579 5579 5579 5579 5578 5577 5576 5575 5574 5574 5573 5573 5572 5571 5570 5570 5570 5570 5570 5569 5567 5568 5569 5570 5570 5569 5570 5569 5568 5568 5566 5565 5563 5562 5562
5586 5584 5582 5581 5579 5577 5575 5573 5571 5571 5571 5570 5569 5568 5567 5565 5565 5564 5563 5561 5560 5559 5558 5557 5556 5558 5557 5556 5556 5557 5558 5558 5558 5558 5560 5561 5561 5560 5559 5558 5556 5554 5554